Theta_e
304 303 301 294 296 297 298 298 298 298 298 299 296 301 305 308 306 306 306 306 305 299 297 298 297 297 297 298 296 296 296 296 296 297 294 294 296 297 297 297 297 297 296 298 299 300 299 303 303 306 303 302 302 303
303 303 296 294 297 297 298 298 298 299 298 298 297 301 305 306 307 305 306 305 302 300 297 297 297 298 298 297 298 296 295 296 298 294 290 290 296 287 294 296 296 300 298 299 299 299 299 304 304 303 303 302 301 301
303 299 294 296 297 297 298 298 298 298 298 298 297 300 305 307 306 306 305 302 301 299 297 297 298 298 298 298 298 298 297 298 298 297 292 292 295 292 294 293 296 296 298 301 301 300 300 300 302 303 297 298 298 298
299 294 296 297 297 298 298 298 298 298 298 299 297 301 306 307 308 307 305 301 301 300 297 296 297 297 298 298 299 298 299 299 298 297 294 290 295 293 293 293 294 295 296 297 297 296 297 300 300 297 297 298 298 298
294 296 297 298 298 298 298 298 298 299 298 298 296 299 306 308 308 308 306 303 300 300 297 296 296 297 297 298 298 298 299 299 298 296 291 292 293 293 290 291 292 293 294 296 297 296 296 297 297 298 297 297 297 297
297 297 298 298 298 298 299 299 299 298 298 298 297 300 307 307 308 302 300 300 300 300 299 295 295 295 296 296 297 297 298 297 297 296 293 294 295 293 291 292 294 296 297 297 296 296 297 298 297 295 295 296 297 297
298 299 298 297 297 297 297 297 299 299 298 298 298 300 303 306 305 302 302 302 301 300 299 294 294 295 295 296 296 296 296 296 296 295 294 294 294 293 288 293 295 296 296 296 297 297 297 296 295 296 296 296 297 298
298 297 297 298 298 298 298 297 297 299 298 298 298 301 302 305 303 301 301 301 301 301 298 293 294 295 295 295 295 295 295 295 294 294 294 293 293 292 293 293 295 295 296 297 297 297 297 296 295 296 297 297 300 299
297 298 299 299 299 299 299 298 297 299 298 298 299 301 303 304 302 302 300 301 301 300 297 293 295 296 294 294 295 295 294 290 293 291 293 293 293 294 294 294 294 295 297 297 297 296 297 296 295 296 298 299 299 300
299 299 299 299 300 300 300 298 297 299 298 299 299 303 300 301 302 301 300 301 300 300 297 293 295 295 295 294 293 293 293 290 289 293 294 293 293 294 295 296 296 296 296 297 297 296 296 296 295 297 297 298 299 299
299 300 300 301 300 300 300 298 298 298 299 299 300 298 299 300 302 301 299 299 298 297 296 294 295 294 294 292 291 293 291 290 286 290 290 287 290 291 296 296 296 296 297 297 297 297 297 296 296 297 297 298 299 299
300 301 301 302 301 300 300 298 299 299 299 299 299 298 300 302 300 298 299 294 295 298 293 292 294 295 295 295 293 292 289 287 290 291 294 293 290 295 296 296 296 296 298 297 297 297 297 297 297 297 297 298 298 298
300 300 301 301 300 300 299 299 299 299 300 300 300 301 301 297 298 298 296 292 290 292 293 293 294 295 295 295 293 291 289 291 292 295 295 291 292 295 296 296 296 297 297 296 297 298 298 297 297 297 297 297 297 297
300 300 301 300 299 299 299 299 299 300 300 300 299 299 299 296 296 294 294 293 294 295 294 296 293 294 295 292 292 290 293 294 296 294 292 289 295 297 297 298 298 297 296 296 297 297 296 297 296 296 296 296 295 293
299 299 299 299 299 299 299 299 301 301 300 299 299 299 297 294 293 294 295 294 295 295 296 295 294 295 289 291 292 295 295 296 295 293 291 295 296 297 298 298 297 295 295 295 295 296 296 296 296 296 295 292 290 290
299 298 298 299 299 299 298 300 300 300 299 297 296 294 295 294 293 294 294 294 295 296 297 297 291 289 290 292 295 292 291 292 292 289 296 296 297 298 299 298 296 295 294 294 294 295 295 295 295 294 292 291 292 293
298 298 299 300 300 300 299 300 300 299 297 295 295 295 295 295 294 294 295 295 296 297 294 290 292 292 290 289 290 291 291 291 293 296 297 297 299 299 299 299 296 296 295 294 294 294 295 295 294 293 293 293 294 294
297 299 299 299 299 299 300 301 298 295 293 294 296 295 295 295 295 295 296 296 296 296 295 292 292 290 292 293 291 291 294 295 295 298 298 298 299 300 299 298 297 296 295 294 294 294 293 293 292 291 291 290 290 290
297 298 299 299 299 301 299 297 296 292 293 294 295 296 295 295 296 296 295 296 297 297 295 293 288 290 292 291 289 293 294 296 296 298 298 299 300 299 298 298 297 296 296 296 294 293 293 292 291 290 290 289 289 288
298 297 299 299 300 301 296 294 295 294 292 293 295 295 295 295 295 295 296 296 296 297 291 289 292 293 294 296 296 297 299 300 300 299 298 298 298 298 298 297 297 296 295 295 295 294 292 290 290 288 288 288 288 287
298 298 298 299 300 297 294 293 293 293 293 293 294 295 294 295 294 295 296 296 297 295 291 294 294 295 296 297 297 298 299 301 301 301 300 298 298 298 298 297 296 295 295 295 295 294 292 289 288 288 289 289 288 288
298 298 299 299 296 293 292 292 292 293 293 292 294 294 295 294 295 296 296 297 296 297 297 296 295 297 298 299 298 298 300 299 299 299 299 299 298 298 298 297 297 296 296 295 294 293 290 288 288 289 288 288 288 288
297 298 299 299 295 293 290 291 292 293 294 291 292 292 291 290 293 296 297 297 297 297 298 296 296 298 298 299 299 299 299 299 299 298 298 297 296 296 296 295 295 296 295 294 294 294 292 288 288 288 288 288 288 288
299 299 296 294 292 288 291 290 291 291 291 292 291 289 289 289 292 292 292 293 296 298 297 297 296 297 297 297 298 298 297 296 296 295 295 294 294 294 293 293 293 294 293 292 292 293 292 287 287 287 287 287 287 287
298 293 294 290 290 290 289 289 290 291 290 290 289 287 287 288 291 290 291 293 293 295 296 296 296 297 296 295 295 295 295 294 294 294 294 293 292 292 292 292 292 292 292 292 292 292 291 288 287 287 287 286 286 285
292 288 291 290 289 290 290 290 290 290 290 289 287 284 286 289 291 292 291 291 291 293 295 296 295 295 295 296 295 295 294 293 292 292 292 292 291 292 292 292 291 290 288 288 287 287 286 286 286 285 285 285 284 284
290 287 288 290 290 290 289 290 290 291 291 290 286 285 288 294 294 290 289 289 290 292 294 295 295 295 296 295 294 293 292 291 291 292 291 291 291 291 288 287 288 287 287 286 286 286 285 285 285 284 284 284 283 282
288 288 289 287 288 290 289 289 291 293 291 288 288 290 293 295 292 288 289 289 290 292 293 293 294 294 294 294 292 292 291 292 291 290 289 288 287 287 287 287 286 286 286 286 286 285 284 284 284 283 282 282 281 281
287 288 290 288 288 287 287 290 290 287 288 289 292 290 289 287 287 288 289 290 291 291 293 293 292 291 291 291 290 290 289 289 288 287 287 287 286 287 287 287 287 286 285 284 284 284 283 282 282 281 281 281 280 280
289 289 289 288 290 287 282 283 283 285 286 288 287 286 285 285 286 288 289 289 290 291 291 291 290 289 290 290 289 288 287 287 287 286 286 287 287 287 287 286 285 284 284 283 282 282 281 281 280 280 280 280 280 280
288 288 284 283 281 280 281 282 284 284 285 285 285 285 284 285 286 288 288 289 289 290 290 289 289 290 290 289 289 288 287 286 286 286 287 287 287 286 285 285 284 283 283 282 282 281 281 281 280 280 280 280 280 280
286 285 285 284 281 281 283 284 284 284 285 285 284 285 285 286 286 287 289 289 290 289 288 289 291 290 287 287 286 286 286 286 286 287 287 286 285 285 284 283 283 282 282 281 281 280 280 280 280 280 280 280 280 279
283 283 282 282 281 281 283 284 283 282 283 282 282 283 283 285 285 287 289 290 289 290 290 289 287 287 286 286 286 286 286 286 286 286 285 285 284 284 283 282 282 281 281 281 281 281 280 280 280 280 280 279 279 279
Wind_Speed
36 37 36 32 24 20 22 25 21 20 19 13 10 12 9 11 29 37 28 27 16 2 3 3 4 5 6 5 4 8 5 2 2 2 3 3 3 4 2 4 5 6 5 3 3 1 5 2 3 0 1 1 4 7
37 37 35 31 26 22 18 24 22 20 19 14 8 9 3 17 30 31 25 23 13 4 7 11 10 7 6 6 6 14 1 4 8 4 1 3 2 1 3 2 1 2 5 4 7 5 3 2 3 3 2 2 5 10
39 37 34 30 28 24 19 22 22 21 19 15 10 10 6 19 35 30 24 16 12 9 8 5 6 7 5 6 7 5 4 6 6 4 7 2 2 3 3 4 3 3 5 3 1 2 5 4 5 6 3 2 7 10
39 36 33 32 30 27 22 22 24 22 20 18 14 12 12 19 40 35 24 15 11 7 5 2 5 4 4 3 4 3 3 9 9 5 3 3 2 5 2 1 3 4 7 4 5 6 4 2 7 7 7 14 18 17
39 36 36 33 30 30 26 24 26 25 23 20 17 15 13 17 32 42 26 20 15 4 7 7 9 7 7 5 3 6 9 10 5 3 2 2 3 3 1 1 3 9 6 5 5 6 3 3 4 11 13 10 12 15
38 38 34 32 31 30 28 27 28 28 26 23 22 20 18 26 33 30 10 15 12 8 6 3 5 6 7 7 7 8 8 5 3 3 3 2 2 2 2 3 5 16 10 6 4 6 3 5 7 4 8 9 10 13
39 38 36 36 35 34 33 29 31 31 29 26 24 26 16 33 38 20 7 17 20 9 5 4 1 5 6 4 4 4 4 3 2 3 2 3 3 3 2 3 3 14 12 10 6 3 1 2 4 6 7 10 13 14
38 39 39 38 37 36 35 34 33 33 31 28 25 30 16 34 40 17 6 21 23 7 5 4 2 3 8 3 1 2 1 2 2 3 3 3 3 2 4 10 5 13 14 10 6 5 4 4 6 4 6 11 12 8
40 41 40 39 39 38 35 36 36 34 31 28 24 29 17 41 28 20 9 15 17 5 8 4 6 3 10 3 3 2 1 2 1 1 2 4 2 6 7 10 19 21 16 9 8 6 3 3 5 4 7 7 8 8
41 42 40 40 39 40 40 40 39 37 33 30 23 15 9 23 28 25 9 5 8 5 4 3 8 3 7 4 2 3 1 2 1 2 4 3 4 19 12 8 13 22 14 9 7 4 8 4 3 4 5 5 5 7
37 38 39 40 43 42 43 46 42 42 40 30 15 5 33 41 17 6 5 5 4 2 8 8 6 6 10 3 3 4 2 1 1 3 4 3 4 4 10 17 15 17 13 8 5 5 6 5 5 5 5 6 6 7
27 27 26 33 43 45 46 49 48 52 34 35 17 38 22 9 6 5 5 3 4 7 9 9 10 7 9 6 4 4 3 2 4 5 2 3 4 7 14 24 20 13 10 8 8 7 7 6 6 8 6 5 6 7
10 6 13 30 40 46 51 50 53 48 40 39 19 8 8 5 5 11 10 4 3 9 15 14 6 10 7 5 5 3 3 4 7 2 4 5 3 12 17 24 20 14 11 9 8 7 7 6 6 6 7 6 6 8
10 16 25 36 44 49 52 55 52 54 45 8 9 8 6 6 6 5 6 6 9 15 29 24 11 6 6 3 3 5 2 3 3 3 6 3 15 22 22 20 18 15 11 8 8 7 5 4 5 5 7 6 7 8
20 25 31 38 46 54 53 54 50 42 9 7 7 6 6 4 3 7 15 18 13 35 36 18 9 6 2 4 2 4 4 5 6 5 3 6 21 27 24 20 15 13 12 10 8 7 6 6 5 5 6 5 6 6
33 34 31 35 44 47 49 49 46 12 2 3 5 5 7 4 2 5 12 14 26 35 27 8 4 4 2 5 5 8 8 7 4 3 6 16 26 28 24 18 15 12 12 11 10 9 8 7 6 6 6 6 6 7
29 24 27 45 57 55 44 46 11 3 5 4 2 6 5 4 6 8 18 16 39 33 4 3 5 6 4 3 3 5 6 3 5 9 12 22 27 27 22 15 14 11 10 10 10 8 8 7 8 8 8 8 11 12
19 27 31 53 58 40 26 9 5 4 4 4 4 6 3 3 17 16 14 33 28 13 9 4 10 4 6 7 4 4 10 6 8 11 18 23 24 22 18 14 13 12 10 9 7 6 5 5 6 8 10 11 12 13
25 32 50 53 45 23 5 4 3 4 5 6 10 9 6 8 11 13 28 34 21 9 14 5 4 4 4 5 5 11 17 15 17 21 21 22 20 19 17 14 11 10 8 6 4 3 5 6 7 7 5 6 6 7
35 34 41 38 26 7 5 4 4 5 2 4 7 6 6 7 14 20 31 20 15 7 2 2 3 3 4 5 8 19 20 21 27 25 21 20 19 17 15 13 10 8 7 6 5 6 6 5 5 4 4 5 7 7
44 40 39 30 16 7 6 4 5 4 7 5 9 5 7 11 11 16 13 12 4 2 2 4 4 7 9 11 14 18 17 21 23 21 25 22 17 15 13 12 12 10 9 8 7 6 7 6 5 3 2 3 5 8
32 34 29 13 6 5 6 4 7 8 4 6 5 4 6 3 5 6 11 2 2 3 3 6 11 14 15 15 18 17 17 19 15 13 15 14 16 16 14 13 12 10 9 7 8 7 7 7 8 6 4 4 8 11
38 29 15 4 5 5 4 4 3 2 3 3 3 3 2 2 5 11 3 5 5 9 11 10 15 17 16 18 19 18 17 15 14 13 12 11 10 9 9 9 9 9 10 9 9 9 9 10 11 10 10 11 14 16
28 7 5 4 4 3 6 2 4 5 5 3 2 3 1 3 7 2 2 4 9 18 21 18 21 22 20 19 19 17 15 13 12 10 8 7 7 7 7 7 7 8 9 9 10 12 11 12 13 15 16 18 20 22
5 3 5 4 4 5 4 3 2 2 3 2 3 2 2 4 2 2 3 4 14 23 28 26 25 25 25 22 19 16 13 10 8 8 8 8 7 8 7 6 5 5 6 7 9 10 11 13 14 16 19 21 23 25
4 2 2 3 3 4 5 4 4 4 3 3 2 4 3 2 3 4 3 5 10 23 31 32 32 29 23 19 17 14 11 10 9 10 10 10 10 9 7 4 2 2 3 3 4 6 9 12 15 18 20 22 23 25
4 2 2 3 6 8 5 5 4 3 3 5 4 4 3 4 5 3 3 5 7 15 23 25 25 23 22 19 15 13 13 13 13 11 12 12 10 7 5 3 1 1 3 6 8 10 12 15 17 19 20 21 21 23
4 6 6 6 5 2 5 3 4 3 3 6 8 4 7 6 3 3 4 6 9 17 22 25 23 19 16 15 16 19 20 18 17 15 13 11 8 6 2 1 4 7 9 10 11 12 14 16 18 19 19 20 19 19
3 8 7 3 4 5 3 2 2 3 7 12 2 3 3 2 3 4 7 12 20 21 23 25 24 23 23 24 23 20 18 16 14 13 10 7 5 1 3 5 7 7 8 11 12 14 15 16 16 15 15 17 19 21
4 2 4 3 3 3 2 3 4 8 7 9 6 4 3 2 4 9 14 19 22 22 22 24 27 26 27 25 24 22 18 15 12 8 5 3 1 3 4 4 6 7 9 10 10 10 10 10 10 11 13 14 15 15
6 4 5 5 3 2 5 9 9 10 7 5 5 4 5 5 7 13 17 21 22 23 25 27 26 23 21 20 18 18 16 12 8 5 1 1 3 4 5 6 7 8 8 7 7 7 8 9 10 11 12 13 14 15
3 3 3 4 2 7 9 3 3 3 3 2 2 3 4 4 4 13 19 22 23 25 25 25 24 22 19 18 16 13 9 8 5 1 2 3 4 5 6 6 6 6 6 6 7 7 8 9 10 11 12 13 14 14
4 6 6 6 4 3 5 5 3 3 3 2 2 4 4 4 5 10 19 23 23 24 23 22 20 20 19 17 13 10 8 5 2 1 1 3 4 5 4 4 5 5 5 5 5 5 6 8 9 10 11 12 13 14
Wind_Direction
286 292 298 298 297 297 291 289 290 288 288 286 304 302 356 161 178 176 184 194 214 161 100 186 158 147 144 160 148 154 110 220 93 136 136 201 145 204 151 190 177 173 156 196 138 227 291 238 336 33 195 202 319 351
285 290 294 294 292 291 279 279 280 280 280 272 279 278 323 171 178 182 173 187 209 175 130 105 100 123 144 153 151 167 198 168 175 101 127 115 155 70 163 229 114 215 186 186 183 213 235 215 245 193 158 306 325 317
284 289 290 290 287 278 273 269 270 269 269 257 253 245 228 180 185 184 176 183 168 127 113 119 101 95 110 148 153 156 198 187 187 157 153 148 144 136 164 240 195 247 187 218 354 212 215 228 213 203 178 22 339 329
283 284 285 287 282 273 265 258 258 257 256 246 236 228 210 204 190 193 187 190 190 141 113 73 122 106 81 160 179 190 215 171 154 145 109 132 145 193 200 185 199 200 146 186 261 265 265 268 203 205 271 302 307 303
279 280 281 278 271 264 258 249 247 247 244 234 225 221 209 206 208 202 201 213 216 212 139 144 118 82 80 74 147 147 153 156 146 118 78 174 129 129 61 58 244 191 183 170 219 167 140 193 232 298 312 330 320 310
279 281 277 269 263 258 250 242 239 235 236 223 217 214 198 194 203 167 168 195 176 181 116 120 133 129 114 110 123 133 145 144 131 121 126 144 157 159 144 222 250 198 194 180 167 170 223 284 308 315 309 312 312 320
279 275 268 264 260 255 248 240 233 227 228 219 213 213 207 192 174 171 181 178 180 159 156 99 82 170 164 158 131 108 129 125 128 118 127 157 163 181 155 228 240 195 188 186 190 204 227 279 321 318 313 321 321 316
272 268 267 262 255 249 241 232 227 222 217 211 210 214 211 186 176 181 139 167 174 168 155 125 115 160 185 183 147 136 134 128 76 135 147 168 160 195 250 231 205 179 177 191 219 214 250 305 314 319 313 321 329 335
275 270 264 258 251 242 231 221 216 212 203 200 206 211 212 172 174 174 114 157 170 182 164 155 141 181 164 148 129 116 138 48 245 165 208 154 195 229 224 196 192 181 182 183 179 216 219 262 308 324 342 355 353 342
275 272 263 252 240 229 219 209 205 197 185 187 175 163 143 167 167 152 114 135 190 222 182 99 118 132 158 138 118 120 28 167 183 237 154 206 254 251 236 211 197 186 184 184 175 203 184 219 271 311 324 330 341 354
281 274 263 244 227 214 207 197 192 180 173 165 183 130 139 132 135 130 133 150 215 274 184 140 149 139 175 133 170 204 177 121 91 249 157 262 267 239 202 196 173 175 188 197 186 184 202 219 250 272 315 321 329 328
287 279 263 222 203 198 193 184 180 172 172 177 146 134 125 123 129 144 175 150 199 203 162 146 151 129 145 145 117 177 131 78 238 154 218 256 249 207 177 175 171 178 181 176 187 190 196 215 242 279 304 321 337 340
275 241 175 171 177 179 175 173 170 168 161 144 140 156 159 164 150 174 180 218 158 167 167 157 124 134 131 157 102 124 115 214 131 220 239 229 225 171 169 173 175 176 174 178 188 186 194 223 242 256 286 305 311 324
169 162 156 159 163 164 163 161 165 165 146 158 157 139 189 183 213 183 170 159 169 154 149 136 117 134 135 114 146 111 214 160 214 240 236 238 191 167 160 162 168 168 171 181 183 196 215 230 245 267 288 282 298 309
155 151 154 156 158 157 157 161 162 151 176 169 148 170 184 156 97 151 139 130 141 151 144 125 91 115 108 112 158 128 179 233 217 233 231 199 171 170 168 171 167 174 170 177 186 200 212 222 227 247 271 286 296 303
153 148 152 155 156 162 163 158 168 197 60 93 80 101 115 99 118 133 127 124 145 150 144 116 120 103 168 142 156 208 160 220 240 216 205 164 167 173 173 175 176 172 177 184 194 200 215 227 237 251 258 269 284 295
143 146 158 147 150 149 155 154 174 106 72 68 83 123 152 101 141 157 150 154 158 155 145 133 116 178 102 115 218 196 205 214 214 191 171 169 168 171 175 173 168 166 170 188 193 211 222 237 252 264 278 294 292 289
150 154 160 154 155 147 147 143 73 90 91 93 104 102 92 141 146 147 148 155 160 175 149 169 129 143 176 177 220 220 199 165 162 163 161 165 167 169 175 175 171 170 176 185 193 202 216 243 271 287 290 296 301 304
159 157 156 165 157 145 98 74 69 97 63 73 94 105 117 123 140 153 153 162 165 151 139 136 102 175 207 211 190 164 165 159 155 150 153 159 167 172 175 179 179 178 182 188 198 232 275 296 297 293 302 313 328 332
169 170 165 157 164 119 82 61 69 80 94 103 110 105 96 106 135 151 155 151 145 156 100 135 211 208 194 179 172 174 161 159 155 150 156 165 171 178 184 190 191 196 205 213 230 262 292 294 283 292 312 331 345 350
137 150 163 160 141 76 89 82 70 81 105 97 123 101 83 118 123 147 154 151 161 181 216 213 179 159 143 143 146 155 155 164 170 170 169 171 177 181 187 191 202 218 228 237 247 268 282 270 258 241 280 334 346 346
169 159 143 120 106 97 87 84 114 119 110 115 96 92 112 95 118 137 151 186 256 200 199 178 171 160 148 141 147 151 154 163 166 161 170 180 186 191 199 208 221 236 245 249 249 269 279 257 234 233 255 309 334 340
153 159 161 74 86 75 104 116 118 110 109 119 129 105 70 108 130 125 144 217 226 195 200 184 172 161 155 147 149 155 158 167 163 162 162 168 176 189 206 223 234 234 235 232 251 271 278 260 249 255 274 292 304 314
138 117 121 107 94 112 130 79 88 99 114 112 110 114 108 116 140 124 207 227 202 195 200 189 179 166 161 158 159 162 166 170 178 180 189 201 207 209 215 222 227 228 231 241 255 268 270 262 260 268 279 291 301 304
120 49 111 96 124 119 114 125 129 97 107 130 123 133 159 146 131 169 227 236 200 195 191 187 183 186 177 173 175 179 186 194 212 216 209 208 204 198 197 204 216 231 246 256 262 269 269 270 274 282 288 294 300 304
83 8 67 135 140 132 165 130 151 141 128 116 83 128 140 122 147 227 221 208 202 195 193 191 186 185 186 191 190 192 204 203 186 179 176 172 166 162 162 173 200 244 262 278 285 287 284 284 287 292 298 303 305 305
120 196 119 114 130 130 97 85 126 129 125 155 162 158 151 172 220 239 210 189 189 191 191 191 190 192 191 187 185 185 181 172 163 166 160 157 157 161 161 157 167 318 318 310 306 303 301 302 303 305 306 308 309 308
123 163 154 173 129 100 124 125 140 132 139 145 138 170 175 192 227 173 181 178 164 157 164 171 175 175 182 180 173 165 157 155 152 149 148 147 149 148 155 283 309 311 309 308 310 311 312 310 309 310 313 315 319 322
95 131 118 70 75 55 44 71 104 108 137 164 149 161 178 195 184 177 161 156 153 153 158 158 156 158 158 155 153 152 154 154 158 154 153 151 161 203 299 312 316 316 316 317 317 316 316 316 320 326 331 330 330 333
153 134 99 67 68 78 46 69 109 137 136 141 126 117 109 128 161 159 156 155 157 160 161 160 155 158 157 158 158 158 159 157 157 160 156 154 314 325 321 318 318 321 320 317 319 319 323 330 330 331 331 331 336 341
123 98 80 59 84 88 110 112 116 122 123 112 114 129 128 120 144 161 162 158 156 159 161 162 160 163 166 167 168 165 161 162 159 157 139 349 344 341 336 331 327 328 331 333 335 340 340 344 344 352 352 352 357 359
81 85 125 112 110 132 123 109 104 93 101 106 89 122 132 110 143 167 171 164 160 162 164 166 167 165 164 164 164 166 167 162 163 195 310 335 343 339 339 340 341 342 344 351 352 0 358 5 4 5 10 10 12 12
89 82 89 106 117 160 156 129 99 111 101 120 135 168 179 168 156 174 177 176 173 169 169 169 171 170 168 169 171 171 167 164 172 237 299 324 325 335 354 5 9 10 13 17 18 21 17 19 21 18 21 23 26 27